DW7584 Weather Reports


Display with metric or nautical units.
time (UTC)temp
F
wind
direction
speed
MPH
gust
MPH
rain 1hr
in
rain 24hr
in
rain mn
in
humidity
%
barometer
mb
20260510160057 52 270 10.0 15.0 0.00 0.00 0.00 47 1018.8
20260510155016 54 225 14.0 19.0 0.00 0.00 0.00 47 1018.8
20260510154016 53 248 13.0 18.0 0.00 0.00 0.00 48 1018.6
20260510153017 53 248 14.0 23.0 0.00 0.00 0.00 52 1018.8
20260510152016 52 248 10.0 17.0 0.00 0.00 0.00 50 1018.8
20260510151017 52 248 10.0 13.0 0.00 0.00 0.00 51 1018.9
20260510150037 52 248 12.0 16.0 0.00 0.00 0.00 48 1018.9
20260510145017 51 248 10.0 13.0 0.00 0.00 0.00 50 1018.9
20260510144016 51 248 9.0 13.0 0.00 0.00 0.00 50 1019.1
20260510143036 50 225 10.0 16.0 0.00 0.00 0.00 54 1019.2
20260510142016 49 270 9.0 13.0 0.00 0.00 0.00 53 1019.1
20260510141016 48 248 6.0 7.0 0.00 0.00 0.00 57 1018.9
20260510140016 47 248 6.0 7.0 0.00 0.00 0.00 58 1018.9
20260510135016 46 248 5.0 6.0 0.00 0.00 0.00 60 1019.0
20260510134016 46 248 7.0 10.0 0.00 0.00 0.00 59 1018.9
20260510133019 46 248 7.0 10.0 0.00 0.00 0.00 60 1018.9
20260510132016 46 248 7.0 9.0 0.00 0.00 0.00 60 1018.8
20260510131017 46 270 6.0 8.0 0.00 0.00 0.00 60 1018.7
20260510130016 46 248 5.0 8.0 0.00 0.00 0.00 62 1018.6
20260510125016 46 248 5.0 8.0 0.00 0.00 0.00 63 1018.6
20260510124016 44 248 5.0 6.0 0.00 0.00 0.00 66 1018.6
20260510123016 44 248 6.0 8.0 0.00 0.00 0.00 65 1018.6
20260510122016 43 248 5.0 8.0 0.00 0.00 0.00 66 1018.4
20260510121016 42 225 3.0 5.0 0.00 0.00 0.00 70 1018.4
20260510120036 41 225 4.0 6.0 0.00 0.00 0.00 72 1018.4
20260510115017 40 203 2.0 4.0 0.00 0.00 0.00 71 1018.2
20260510114017 39 225 1.0 3.0 0.00 0.00 0.00 73 1018.1
20260510113016 38 225 3.0 4.0 0.00 0.00 0.00 73 1017.9
20260510112036 37 203 2.0 3.0 0.00 0.00 0.00 73 1017.8
20260510111016 37 203 1.0 2.0 0.00 0.00 0.00 72 1017.8
20260510110036 37 225 2.0 4.0 0.00 0.00 0.00 70 1017.8
20260510105036 36 248 4.0 4.0 0.00 0.00 0.00 71 1017.5
20260510104015 35 248 2.0 3.0 0.00 0.00 0.00 74 1017.6
20260510103016 36 248 2.0 3.0 0.00 0.00 0.00 72 1017.3
20260510102016 37 248 3.0 4.0 0.00 0.00 0.00 70 1017.4
20260510101016 37 248 3.0 4.0 0.00 0.00 0.00 70 1017.3
20260510100016 37 248 4.0 4.0 0.00 0.00 0.00 70 1017.1
20260510095016 36 248 3.0 4.0 0.00 0.00 0.00 72 1016.9
20260510094016 35 248 3.0 3.0 0.00 0.00 0.00 73 1016.8
20260510093015 35 248 3.0 3.0 0.00 0.00 0.00 74 1016.7
20260510092016 34 248 1.0 1.0 0.00 0.00 0.00 76 1016.6
20260510091019 34 203 1.0 2.0 0.00 0.00 0.00 77 1016.6
20260510090016 34 0.0 1.0 0.00 0.00 0.00 79 1016.4
20260510085020 34 0.0 0.0 0.00 0.00 0.00 79 1016.4
20260510084017 34 0.0 0.0 0.00 0.00 0.00 80 1016.1
20260510083016 35 0.0 0.0 0.00 0.00 0.00 79 1015.9
20260510082036 35 0.0 0.0 0.00 0.00 0.00 78 1015.9
20260510081016 36 0.0 1.0 0.00 0.00 0.00 77 1015.7
20260510080017 35 0.0 2.0 0.00 0.00 0.00 76 1015.6
20260510075017 35 225 1.0 2.0 0.00 0.00 0.00 77 1015.6
20260510074017 36 225 1.0 1.0 0.00 0.00 0.00 77 1015.3
20260510073017 36 203 1.0 2.0 0.00 0.00 0.00 75 1015.3
20260510072019 36 225 3.0 3.0 0.00 0.00 0.00 73 1015.3
20260510071023 37 203 1.0 2.0 0.00 0.00 0.00 75 1015.3
20260510070022 37 225 1.0 2.0 0.00 0.00 0.00 73 1015.1
20260510065018 37 0.0 1.0 0.00 0.00 0.00 73 1015.1
20260510064018 38 0.0 1.0 0.00 0.00 0.00 69 1015.1
20260510063038 40 0.0 1.0 0.00 0.00 0.00 64 1015.1
20260510062059 41 270 1.0 1.0 0.00 0.00 0.00 56 1015.1
20260510061022 41 270 1.0 1.0 0.00 0.00 0.00 56 1014.9
20260510060018 41 270 2.0 2.0 0.00 0.00 0.00 56 1014.9
20260510055039 41 270 2.0 2.0 0.00 0.00 0.00 55 1014.7
20260510054017 40 270 2.0 2.0 0.00 0.00 0.00 57 1014.8
20260510053017 40 248 1.0 2.0 0.00 0.00 0.00 58 1014.6
20260510052017 39 248 2.0 2.0 0.00 0.00 0.00 62 1014.5
20260510051017 42 270 1.0 2.0 0.00 0.00 0.00 54 1014.4
20260510050017 42 293 1.0 1.0 0.00 0.00 0.00 53 1014.1
20260510045017 43 270 1.0 2.0 0.00 0.00 0.00 52 1013.9
20260510044017 43 270 1.0 2.0 0.00 0.00 0.00 51 1013.9
20260510043018 44 293 1.0 1.0 0.00 0.00 0.00 50 1013.9
20260510042039 44 0.0 1.0 0.00 0.00 0.00 50 1013.7
20260510041058 44 293 2.0 2.0 0.00 0.00 0.00 49 1013.8
20260510040017 44 293 2.0 2.0 0.00 0.00 0.00 51 1013.6
20260510035019 43 270 2.0 2.0 0.00 0.00 0.00 53 1013.4
20260510034017 42 0.0 1.0 0.00 0.00 0.00 57 1013.4
20260510033018 42 338 1.0 2.0 0.00 0.00 0.00 58 1013.1
20260510032017 42 338 2.0 3.0 0.00 0.00 0.00 60 1013.0
20260510031017 43 338 1.0 3.0 0.00 0.00 0.00 60 1013.0
20260510030017 44 338 1.0 2.0 0.00 0.00 0.00 58 1013.0
20260510025017 44 338 1.0 3.0 0.00 0.00 0.00 57 1013.0
20260510024018 45 338 2.0 4.0 0.00 0.00 0.00 56 1012.9
20260510023018 46 338 4.0 9.0 0.00 0.00 0.00 52 1012.8
20260510022017 47 315 5.0 9.0 0.00 0.00 0.00 49 1012.7
20260510021017 48 315 6.0 9.0 0.00 0.00 0.00 49 1012.6
20260510020017 48 315 9.0 16.0 0.00 0.00 0.00 46 1012.4
20260510015017 49 315 10.0 15.0 0.00 0.00 0.00 48 1012.1
20260510014017 49 315 9.0 14.0 0.00 0.00 0.00 47 1011.8
20260510013019 50 315 8.0 15.0 0.00 0.00 0.00 49 1011.4
20260510012017 51 315 10.0 15.0 0.00 0.00 0.00 46 1010.9
20260510011017 52 315 8.0 17.0 0.00 0.00 0.00 45 1010.7
20260510010017 52 315 6.0 12.0 0.00 0.00 0.00 45 1010.3
20260510005017 53 338 6.0 11.0 0.00 0.00 0.00 47 1010.0
20260510004017 54 338 7.0 10.0 0.00 0.00 0.00 43 1009.9
20260510003017 54 315 4.0 8.0 0.00 0.00 0.00 43 1009.6
20260510002017 54 315 5.0 10.0 0.00 0.00 0.00 43 1009.4
20260510001017 56 315 8.0 12.0 0.00 0.00 0.00 39 1009.2
20260510000017 57 293 6.0 10.0 0.00 0.00 0.00 39 1009.0
20260509235017 56 293 8.0 11.0 0.00 0.00 0.00 38 1008.7
20260509234017 56 315 6.0 11.0 0.00 0.00 0.00 40 1008.6
20260509233017 56 315 7.0 10.0 0.00 0.00 0.00 41 1008.3
20260509232038 57 293 7.0 13.0 0.00 0.00 0.00 37 1008.1
20260509231057 57 293 8.0 13.0 0.00 0.00 0.00 34 1008.0
20260509230017 58 293 7.0 13.0 0.00 0.00 0.00 38 1008.0
20260509225017 59 293 9.0 16.0 0.00 0.00 0.00 33 1007.5
20260509224017 57 293 7.0 11.0 0.00 0.00 0.00 35 1007.3
20260509223018 57 293 12.0 19.0 0.00 0.00 0.00 36 1007.4
20260509222017 57 270 10.0 14.0 0.00 0.00 0.00 35 1007.0
20260509221017 58 270 12.0 16.0 0.00 0.00 0.00 38 1006.8
20260509220017 58 270 13.0 17.0 0.00 0.00 0.00 37 1006.8
20260509215017 58 270 11.0 15.0 0.00 0.00 0.00 38 1006.6
20260509214017 58 270 12.0 14.0 0.00 0.00 0.00 35 1006.5
20260509213017 60 270 12.0 20.0 0.00 0.00 0.00 37 1006.3
20260509212057 60 293 8.0 15.0 0.00 0.00 0.00 36 1006.2
20260509211017 59 270 12.0 17.0 0.00 0.00 0.00 39 1006.1
20260509210037 59 270 13.0 17.0 0.00 0.00 0.00 44 1006.0
20260509205017 57 270 11.0 14.0 0.00 0.00 0.00 44 1006.0
20260509204017 58 270 11.0 16.0 0.00 0.00 0.00 42 1005.8
20260509203038 57 270 13.0 17.0 0.00 0.00 0.00 44 1005.8
20260509202017 57 270 13.0 16.0 0.00 0.00 0.00 45 1005.6
20260509201017 57 270 14.0 18.0 0.00 0.00 0.00 44 1005.4
20260509200017 57 270 15.0 21.0 0.00 0.00 0.00 44 1005.5
20260509195017 57 270 13.0 18.0 0.00 0.00 0.00 48 1005.4
20260509194016 58 270 11.0 17.0 0.00 0.00 0.00 45 1005.2
20260509193016 58 270 10.0 15.0 0.00 0.00 0.00 47 1005.3
20260509192037 57 293 12.0 18.0 0.00 0.00 0.00 49 1005.3
20260509191017 58 270 11.0 15.0 0.00 0.00 0.00 51 1005.1
20260509190017 57 270 13.0 22.0 0.00 0.00 0.00 46 1005.0
20260509185016 56 270 14.0 18.0 0.00 0.00 0.00 49 1004.8
20260509184017 57 270 13.0 20.0 0.00 0.00 0.00 51 1004.7
20260509183016 58 248 14.0 20.0 0.00 0.00 0.00 52 1004.6
20260509182037 57 270 13.0 18.0 0.00 0.00 0.00 52 1004.6
20260509181016 57 270 12.0 17.0 0.00 0.00 0.00 52 1004.4
20260509180017 57 248 12.0 17.0 0.00 0.00 0.00 57 1004.6
20260509175016 57 270 13.0 20.0 0.00 0.00 0.00 59 1004.5
20260509174037 57 270 13.0 18.0 0.00 0.00 0.00 56 1004.4
20260509173017 56 248 13.0 17.0 0.00 0.00 0.00 59 1004.4
20260509172037 56 270 12.0 17.0 0.00 0.00 0.00 57 1004.3
20260509171017 55 248 13.0 17.0 0.00 0.00 0.00 60 1004.3
20260509170016 55 248 13.0 20.0 0.00 0.00 0.00 65 1004.3
20260509165016 55 248 15.0 19.0 0.00 0.00 0.00 66 1004.3
20260509164016 53 248 15.0 19.0 0.00 0.00 0.00 66 1004.3
20260509163016 52 248 16.0 21.0 0.00 0.00 0.00 70 1004.2
20260509162016 53 248 15.0 21.0 0.00 0.00 0.00 68 1004.2
20260509161016 52 248 14.0 21.0 0.00 0.00 0.00 70 1003.9